This demonstration page uses our WeatherBlox Daily Observations layout. Learn more.

38.89511, -77.03637

Hourly Observations for February 23, 2015

Temp ( °F °C ) Dew Point ( °F °C ) Humidity (%) Winds ( mph kmh ) Pressure ( in mb ) Visibility ( mi km ) Precip ( " mm )
12:52 am 00:52 Cloudy 39 4 28 -2 65 65 N 9 15 30.27 1025 10 16.09344 0 0
1:52 am 01:52 Cloudy 39 4 27 -3 61 61 N 8 13 30.27 1025 10 16.09344 0 0
2:52 am 02:52 Cloudy 39 4 27 -3 61 61 NNW 13 20 30.27 1025 10 16.09344 0 0
3:52 am 03:52 Cloudy 39 4 25 -4 56 56 N 14 22 30.27 1025 10 16.09344 0 0
4:52 am 04:52 Cloudy 37 3 25 -4 60 60 N 10 17 30.27 1025 10 16.09344 0 0
5:52 am 05:52 Cloudy 37 3 25 -4 60 60 NNW 12 19 30.27 1025 10 16.09344 0 0
6:52 am 06:52 Cloudy 37 3 21 -6 52 52 NNW 17 28 30.3 1026 10 16.09344 0 0
7:52 am 07:52 Cloudy 37 3 21 -6 52 52 NNW 16 26 30.33 1027 10 16.09344 0 0
8:52 am 08:52 Cloudy 34 1 16 -9 48 48 NNW 21 33 30.36 1028 10 16.09344 0 0
9:52 am 09:52 Cloudy 30 -1 12 -11 47 47 NNW 15 24 30.36 1028 10 16.09344 0 0
10:52 am 10:52 Cloudy 28 -2 10 -12 47 47 NNW 18 30 30.39 1029 10 16.09344 0 0
11:52 am 11:52 Mostly Cloudy 28 -2 9 -13 43 43 NNW 21 33 30.39 1029 10 16.09344 0 0
12:52 pm 12:52 Mostly Cloudy 30 -1 7 -14 37 37 NNW 16 26 30.36 1028 10 16.09344 0 0
1:52 pm 13:52 Mostly Cloudy 32 0 7 -14 34 34 NNW 18 30 30.36 1028 10 16.09344 0 0
2:52 pm 14:52 Mostly Cloudy 30 -1 7 -14 37 37 N 20 31 30.36 1028 10 16.09344 0 0
3:52 pm 15:52 Partly Cloudy 30 -1 3 -16 31 31 NNW 18 30 30.36 1028 10 16.09344 0 0
4:52 pm 16:52 Mostly Cloudy 30 -1 1 -17 29 29 NW 17 28 30.36 1028 10 16.09344 0 0
5:52 pm 17:52 Mostly Cloudy 28 -2 0 -18 29 29 NNW 20 31 30.39 1029 10 16.09344 0 0
6:52 pm 18:52 Partly Cloudy 27 -3 -2 -19 28 28 NNW 14 22 30.42 1030 10 16.09344 0 0
7:52 pm 19:52 Clear 25 -4 -2 -19 30 30 NNW 14 22 30.42 1030 10 16.09344 0 0
8:52 pm 20:52 Partly Cloudy 23 -5 -2 -19 33 33 NNW 13 20 30.42 1030 10 16.09344 0 0
9:52 pm 21:52 Mostly Clear 21 -6 -4 -20 32 32 NW 13 20 30.45 1031 10 16.09344 0 0
10:52 pm 22:52 Partly Cloudy 21 -6 -6 -21 30 30 NNW 7 11 30.45 1031 10 16.09344 0 0
11:52 pm 23:52 Partly Cloudy 19 -7 -6 -21 32 32 NNW 9 15 30.45 1031 10 16.09344 0 0

Powered by AerisWeather